If you wish to contribute or participate in the discussions about articles you are invited to join SKYbrary as a registered user

 Actions

Akita Airport

From SKYbrary Wiki

RJSK
Airport
ICAO: RJSK – IATA: AXT
Summary
Name Akita Airport
Region Asia and Pacific
Territory Japan JP.gif
Location Akita, Akita Prefecture
Serving Akita
Elevation 92.964 m305 ft92.964 m
Coordinates 39° 36' 55.1487", 140° 13' 4.9732"
Runways
Designator Length Width Surface ROPS
10/28 2499 m8,198.819 ft 61 m200.131 ft ASP yes/yes


METAR
Observation RJSK 230400Z 20004KT 110V290 CAVOK 25/13 Q1004
Station Akita Airport
Date/Time 23 June 2018 04:00:00
Wind direction 200°
Wind speed 04 kts
Lowest cloud amount clouds and visibility OK
Temperature 25°C
Dew point 13°C
Humidity 47%
QNH 1004 hPa
Weather condition n/a

Akita Airport is an airport located 14 km7.559 nm
14,000 m
45,931.759 ft
southeast of Akita, a city in the Akita Prefecture of Japan.

Climatology

Humid subtropical climate (Köppen climate classification Cfa).

Maps

Terrain

Loading map...

Airport Layout

Loading map...


Accidents & Serious Incidents at or in vicinity of RJSK

  • B739, Akita Japan, 2007 (On 6 January 2007, a Boeing B737-900 operated by Korean Airlines landed at Akita Airport on a taxiway parallel to the in-use runway after a daylight non-precision approach (NPA) using a head-up display (HUD). The crew realised their error during the landing roll.)